Погода в Чинадиево

Украина / Закарпатская область     48°29′16″N   22°49′58″E
темп.,
°C
ветер,
м/с
пор.,
м/с
влажн.,
%
обл.,
%
осадки,
мм/ч
давл.,
гПа
погр.,
м
1 марта, пн
пн123:00+2ссз237776 0.0 103029
02:00+3сз368187 0.0 1030209
05:00+2с349384 0.0 1031178
08:00+2с369266 0.0 1032227
11:00+5ссв587129 0.0 10331103
14:00+7ссв355724 0.1 10331112
17:00+6ссв356226 0.0 1034943
20:00+2ссв338113 0.0 103566
2 марта, вт
вт223:00+1св22810 0.0 103633
02:000св22810 0.0 103726
05:000св12790 0.0 103522
08:00+1св11750 0.0 103621
11:00+6юз11580 0.0 1034434
14:00+7зюз21570 0.0 1033629
17:00+7зюз12660 0.0 1032361
20:00+3св11830 0.0 103322
3 марта, ср
ср323:00+2св12850 0.0 103422
02:00+1св11850 0.0 103422
05:00+1всв11830 0.0 103322
08:00+2в11810 0.0 103322
11:00+6ю116412 0.0 1032384
14:00+9ююз21596 0.0 1030597
17:00+8ююз11650 0.0 1028406
20:00+4в12790 0.0 102822
4 марта, чт
чт423:00+3в22810 0.0 102722
02:00+2вюв22832 0.0 102524
05:00+2юв228672 0.0 102328
08:00+2юв228752 0.0 102241
11:00+6ю347211 0.0 1019554
14:00+9ю356150 0.0 10171019
17:00+9ю256367 0.0 1015703
20:00+6юв238051 0.0 101533
5 марта, пт
пт523:00+5юв238688 0.0 101482
02:00+4юв248965 0.0 101388
05:00+3юв2387100 0.0 101181
08:00+3юв2685100 0.0 1010202
11:00+5ю3581100 0.1 1010608
14:00+7ю0280100 0.1 1012494
17:00+4с4792100 1.5 1013452
20:00+3ссв258897 1.8 1016392